DateTimeUTC,F1_A11,F1_S11,BsB_S11,BsG_S11,BsR_S11,BbsB_S11,BbsG_S11,BbsR_S11,BaB_A11,BaG_A11,BaR_A11,Tu_S11,T_S11,Uu_S11,U_S11,P_S11,T1_A11
2021-07-31T18:00:00Z,00000200,20000000,,,,,,,-000.10,-000.04,-000.43,20.2,26.8,11.0,07.4,0679.7,31.1
2021-07-31T18:01:00Z,00000200,20000000,,,,,,,-000.00,0000.09,0000.20,20.2,26.8,10.8,07.2,0679.7,31.1
2021-07-31T18:02:00Z,00000200,20000000,,,,,,,-000.23,-000.19,-000.01,20.2,26.8,10.7,07.2,0679.7,31.1
2021-07-31T18:03:00Z,00000200,60000000,,,,,,,0001.37,0001.33,0001.13,20.2,26.8,10.7,07.2,0679.7,31.1
2021-07-31T18:04:00Z,00000200,40000000,0009.90,0007.01,0004.64,0001.18,0000.85,0000.87,0002.32,0002.07,0001.45,20.3,26.6,10.7,07.3,0680.6,31.2
2021-07-31T18:05:00Z,00000200,00000000,0009.39,0007.31,0005.02,0000.65,0000.74,0000.91,0002.26,0002.24,0001.71,20.4,26.6,10.8,07.4,0680.7,31.2
2021-07-31T18:06:00Z,00000200,00000000,0008.92,0006.60,0004.80,0001.33,0000.84,0000.95,0002.21,0001.79,0001.37,20.4,26.6,10.8,07.4,0680.7,31.1
2021-07-31T18:07:00Z,00000200,00000000,0010.01,0006.85,0004.77,0000.99,0001.08,0000.90,0001.96,0001.96,0001.29,20.4,26.6,10.9,07.5,0680.7,31.1
2021-07-31T18:08:00Z,00000200,00000000,0009.89,0007.53,0004.65,0001.81,0000.90,0000.80,0002.17,0002.20,0001.64,20.4,26.5,10.9,07.5,0680.7,31.1
2021-07-31T18:09:00Z,00000200,00000000,0010.04,0007.15,0004.80,0001.43,0000.95,0000.42,0002.55,0001.95,0001.96,20.4,26.5,10.8,07.4,0680.7,31.2
2021-07-31T18:10:00Z,00000200,00000000,0010.04,0006.56,0005.01,0000.95,0000.97,0000.38,0002.07,0002.14,0001.53,20.3,26.6,10.8,07.5,0680.7,31.2
2021-07-31T18:11:00Z,00000200,00000000,0010.28,0006.98,0004.78,0001.11,0000.96,0000.74,0001.86,0001.79,0001.55,20.4,26.5,10.8,07.5,0680.7,31.2
2021-07-31T18:12:00Z,00000200,00000000,0009.55,0006.93,0004.57,0001.81,0000.79,0000.60,0002.36,0001.92,0001.23,20.3,26.5,11.0,07.5,0680.7,31.1
2021-07-31T18:13:00Z,00000200,00000000,0009.53,0007.51,0004.17,0001.89,0001.06,0000.60,0002.31,0002.19,0001.96,20.4,26.5,10.9,07.5,0680.7,31.1
2021-07-31T18:14:00Z,00000200,00000000,0009.72,0007.07,0004.33,0000.94,0001.11,0000.72,0002.23,0001.65,0001.46,20.4,26.5,11.0,07.6,0680.7,31.1
2021-07-31T18:15:00Z,00000200,00000000,0009.67,0007.79,0004.35,0001.33,0001.02,0000.47,0001.86,0002.26,0001.60,20.4,26.5,10.9,07.5,0680.7,31.2
2021-07-31T18:16:00Z,00000200,00000000,0009.71,0007.28,0004.72,0001.29,0000.89,0001.01,0002.27,0002.03,0001.39,20.4,26.5,10.9,07.5,0680.7,31.1
2021-07-31T18:17:00Z,00000200,00000000,0009.80,0006.71,0004.26,0002.00,0001.13,0000.57,0002.12,0001.74,0001.67,20.4,26.5,11.0,07.6,0680.7,31.1
2021-07-31T18:18:00Z,00000200,00000000,0010.32,0006.51,0004.58,0001.42,0000.81,0000.52,0002.22,0002.21,0001.45,20.3,26.5,11.0,07.6,0680.7,31.1
2021-07-31T18:19:00Z,00000200,00000000,0009.16,0007.43,0004.27,0001.32,0001.04,0000.98,0002.05,0001.94,0001.53,20.3,26.5,11.0,07.6,0680.7,31.1
2021-07-31T18:20:00Z,00000200,00000000,0009.33,0006.82,0004.68,0001.25,0000.83,0000.73,0002.43,0002.05,0001.63,20.3,26.5,11.0,07.6,0680.7,31.1
2021-07-31T18:21:00Z,00000200,00000000,0009.56,0007.21,0004.75,0001.33,0001.40,0000.64,0002.19,0002.43,0001.76,20.3,26.5,11.0,07.6,0680.7,31.1
2021-07-31T18:22:00Z,00000200,00000000,0009.19,0006.67,0004.81,0001.05,0001.20,0000.80,0002.36,0001.86,0001.42,20.3,26.5,11.1,07.7,0680.7,31.1
2021-07-31T18:23:00Z,00000200,00000000,0008.44,0006.01,0003.96,0001.98,0000.94,0000.73,0001.88,0001.72,0001.36,20.3,26.5,11.1,07.7,0680.7,31.1
2021-07-31T18:24:00Z,00000200,00000000,0008.05,0005.77,0003.75,0001.11,0000.82,0000.26,0001.61,0001.29,0001.31,20.3,26.5,11.1,07.7,0680.7,31.1
2021-07-31T18:25:00Z,00000200,00000000,0007.80,0004.99,0002.96,0001.00,0000.66,0000.55,0001.29,0001.60,0001.07,20.4,26.5,10.9,07.6,0680.7,31.1
2021-07-31T18:26:00Z,00000200,00000000,0008.45,0005.47,0003.19,0001.25,0000.72,0000.10,0002.12,0001.68,0001.20,20.3,26.5,11.0,07.6,0680.7,31.1
2021-07-31T18:27:00Z,00000200,00000000,0007.58,0005.56,0003.28,0000.85,0000.66,0000.64,0001.67,0001.37,0001.29,20.3,26.5,11.0,07.6,0680.7,31.1
2021-07-31T18:28:00Z,00000200,00000000,0007.22,0005.09,0003.17,0000.96,0000.43,-000.08,0001.41,0001.41,0001.04,20.3,26.5,11.0,07.6,0680.7,31.1
2021-07-31T18:29:00Z,00000200,00000000,0006.94,0005.42,0003.38,0000.75,0000.94,0000.46,0001.66,0001.70,0001.16,20.3,26.5,11.1,07.7,0680.7,31.1
2021-07-31T18:30:00Z,00000200,00000000,0006.75,0004.97,0003.08,0000.47,0000.50,0000.58,0001.74,0001.62,0001.12,20.3,26.5,11.1,07.6,0680.7,31.1
2021-07-31T18:31:00Z,00000200,00000000,0006.55,0005.13,0002.81,0000.87,0000.79,0000.53,0001.12,0001.17,0000.74,20.3,26.5,11.0,07.6,0680.7,31.1
2021-07-31T18:32:00Z,00000200,00000000,0006.82,0004.44,0003.03,0000.97,0000.50,0000.48,0001.68,0001.32,0001.23,20.3,26.5,10.9,07.6,0680.8,31.1
2021-07-31T18:33:00Z,00000200,00000000,0006.68,0004.78,0002.82,0001.10,0000.52,0000.56,0001.64,0001.21,0001.10,20.3,26.5,11.0,07.6,0680.8,31.2
2021-07-31T18:34:00Z,00000200,00000000,0007.21,0005.42,0003.30,0000.87,0000.69,0000.72,0001.56,0001.54,0001.12,20.3,26.5,11.0,07.6,0680.8,31.2
2021-07-31T18:35:00Z,00000200,00000000,0006.45,0004.32,0002.68,0001.00,0000.57,0000.18,0001.41,0001.55,0001.05,20.3,26.5,11.0,07.6,0680.8,31.2
2021-07-31T18:36:00Z,00000200,00000000,0006.99,0004.77,0002.94,0000.76,0000.52,0000.36,0001.70,0001.48,0001.15,20.3,26.5,11.0,07.6,0680.8,31.2
2021-07-31T18:37:00Z,00000200,00000000,0007.74,0004.89,0003.21,0000.70,0000.58,0000.80,0001.38,0001.22,0000.99,20.3,26.5,11.0,07.6,0680.8,31.1
2021-07-31T18:38:00Z,00000200,00000000,0007.41,0004.89,0002.60,0000.60,0000.93,0000.57,0001.46,0001.49,0001.18,20.3,26.4,11.0,07.6,0680.8,31.1
2021-07-31T18:39:00Z,00000200,00000000,0007.86,0005.34,0003.45,0001.25,0000.92,0000.13,0001.58,0001.08,0001.12,20.3,26.4,11.0,07.6,0680.8,31.1
2021-07-31T18:40:00Z,00000200,00000000,0006.30,0005.35,0002.72,0000.27,0000.81,0000.59,0001.44,0001.27,0000.93,20.3,26.4,11.0,07.6,0680.8,31.1
2021-07-31T18:41:00Z,00000200,00000000,0007.11,0004.55,0003.09,0000.92,0000.59,0000.82,0001.34,0001.34,0000.80,20.3,26.4,11.0,07.5,0680.8,31.1
2021-07-31T18:42:00Z,00000200,00000000,0007.65,0004.89,0003.28,0001.11,0000.62,0000.76,0001.75,0001.34,0001.24,20.3,26.4,11.0,07.6,0680.8,31.1
2021-07-31T18:43:00Z,00000200,00000000,0006.82,0005.15,0002.88,0001.13,0001.18,0000.78,0001.34,0001.57,0000.91,20.3,26.4,10.9,07.5,0680.8,31.1
2021-07-31T18:44:00Z,00000200,00000000,0007.80,0004.92,0003.50,0001.60,0000.49,0000.50,0001.72,0001.51,0001.25,20.3,26.4,10.9,07.5,0680.8,31.1
2021-07-31T18:45:00Z,00000200,00000000,0006.79,0005.35,0003.51,0000.46,0000.67,0000.67,0001.65,0001.54,0001.15,20.3,26.4,10.9,07.5,0680.8,31.1
2021-07-31T18:46:00Z,00000200,00000000,0007.43,0005.08,0002.99,0000.77,0000.63,0000.84,0001.48,0001.51,0000.99,20.3,26.4,11.0,07.6,0680.8,31.1
2021-07-31T18:47:00Z,00000200,00000000,0008.64,0005.31,0003.02,0001.14,0000.82,0000.74,0001.89,0001.40,0001.42,20.3,26.4,11.0,07.6,0680.8,31.2
2021-07-31T18:48:00Z,00000200,00000000,0007.12,0005.05,0002.91,0000.79,0000.53,0000.30,0001.46,0001.36,0001.11,20.3,26.4,11.0,07.6,0680.8,31.2
2021-07-31T18:49:00Z,00000200,00000000,0007.74,0005.45,0003.24,0000.88,0001.08,0000.76,0001.31,0001.46,0001.23,20.3,26.4,10.9,07.5,0680.8,31.2
2021-07-31T18:50:00Z,00000200,00000000,0007.15,0005.65,0003.10,0001.24,0001.06,0000.61,0001.62,0001.64,0000.99,20.3,26.4,11.1,07.7,0680.8,31.1
2021-07-31T18:51:00Z,00000200,00000000,0006.96,0005.31,0003.08,0000.59,0000.70,0000.67,0001.89,0001.20,0000.96,20.3,26.4,11.0,07.6,0680.9,31.1
2021-07-31T18:52:00Z,00000200,00000000,0007.11,0004.83,0003.10,0000.70,0000.69,0000.95,0001.51,0001.57,0001.28,20.3,26.4,11.1,07.7,0680.8,31.1
2021-07-31T18:53:00Z,00000200,00000000,0005.80,0004.40,0002.62,0000.27,0000.88,0000.55,0000.88,0000.60,0000.61,20.3,26.4,10.9,07.5,0680.8,31.1
2021-07-31T18:54:00Z,00000200,00000000,0005.80,0003.86,0002.83,0000.26,0000.52,0000.51,0001.16,0001.31,0000.99,20.2,26.4,10.9,07.5,0680.8,31.1
2021-07-31T18:55:00Z,00000200,00000000,0005.79,0003.76,0002.39,0000.97,0000.39,0000.06,0001.19,0001.39,0000.65,20.2,26.4,10.9,07.5,0680.8,31.1
2021-07-31T18:56:00Z,00000200,00000000,0005.17,0003.51,0002.62,0000.75,0000.46,0000.62,0001.23,0000.67,0000.86,20.2,26.4,11.0,07.6,0680.8,31.1
2021-07-31T18:57:00Z,00000200,40000000,,,,,,,-000.02,0000.22,0000.01,20.3,26.4,11.3,07.8,0680.8,31.1
2021-07-31T18:58:00Z,00000200,60000000,,,,,,,0000.43,-000.05,0000.18,20.0,26.5,11.1,07.4,0679.8,31.1
2021-07-31T18:59:00Z,00000200,20000000,,,,,,,-000.37,0000.32,-000.14,20.0,26.6,10.9,07.3,0679.8,31.1
